Other Public Products
Issued by NWS Charleston, SC

Current Version | Previous Version | Graphics & Text | Print | Product List | Glossary On
Versions: 1 2 3 4 5 6 7 8 9 10 11 12 13 14 15 16 17 18 19 20 21 22 23 24 25 26 27 28 29 30 31 32 33 34 35 36 37 38 39 40 41 42 43 44 45 46 47 48 49 50
084 FPUS82 KCHS 240712 OPUCHS TEST...KCHS/KSAV Gateway Observations...TEST National Weather Service Charleston SC 200 AM EST WED JAN 24 2018 NOTE: "fair" indicates few or no clouds below 12,000 feet with no significant weather and/or obstructions to visibility. SCZ050-WAZ558-NCZ071-TXZ119-213-PAZ071-DCZ001-FLZ074-172-MI076- NYZ176-178-MAZ016-IL014-TNZ027-NJZ106-GAZ044-MD014-240800- ...Gateway Observations for Charleston International... CITY SKY/WX TMP DP RH WIND PRES REMARKS Chas Airport FAIR 51 33 50 NW8 30.07S Seattle LGT RAIN 46 41 82 SE10 29.69S Charlotte FAIR 41 28 60 N5 30.05R Dallas DFW PTCLDY 39 23 52 NW3 30.36R Dallas Love PTCLDY 38 26 62 CALM 30.37R Philladelphia PTCLDY 40 30 67 SW6 29.83R WCI 36 Wash National FAIR 46 28 49 W7 29.91R Baltimore FAIR 44 29 55 W14G20 29.86R Miami FAIR 75 71 87 CALM 30.08S Detroit CLOUDY 29 20 69 NW16 30.06R WCI 17 Newark FAIR 40 28 62 SW9 29.76R WCI 34 Laguardia FAIR 45 27 49 SW15 29.74R J F K FAIR 38 30 73 SW9 29.77R WCI 31 Boston Logan FAIR 37 33 85 SW8 29.62R WCI 31 Ft. Lauderdale HVY RAIN 70 70 100 CALM 30.07S Chicago O`Hare CLOUDY 28 21 75 NW8 30.15S WCI 20 Chicago Midway CLOUDY 29 23 78 NW8 30.16S WCI 21 Houston Bush FAIR 45 27 49 CALM 30.34R Houston Hobby MOCLDY 48 27 44 N5 30.33R Nashville CLOUDY 38 26 62 NW12 30.27F WCI 30 Atlanta FAIR 38 30 73 NW16 30.16R WCI 29 $$ GAZ044-118-TXZ119-213-NCZ071-DCZ001-MDZ014-506-PAZ021-071-NJZ106- NYZ176-178-MAZ106-OHZ011-021-055-MIZ076-KYZ091-ILZ014-INZ047- MNZ060-ONZ431-240800- ...Gateway Observations for Savannah International... CITY SKY/WX TMP DP RH WIND PRES REMARKS Savannah Arpt FAIR 48 33 56 NW6 30.11S Atlanta FAIR 38 30 73 NW16 30.16R WCI 29 Charlotte FAIR 41 28 60 N5 30.05R Dallas DFW PTCLDY 39 23 52 NW3 30.36R Houston Bush FAIR 45 27 49 CALM 30.34R Wash National FAIR 46 28 49 W7 29.91R Wash Dulles MOCLDY 44 29 55 W15 29.90R Baltimore FAIR 44 29 55 W14G20 29.86R Philadelphia PTCLDY 40 30 67 SW6 29.83R WCI 36 Newark FAIR 40 28 62 SW9 29.76R WCI 34 Laguardia FAIR 45 27 49 SW15 29.74R J F K FAIR 38 30 73 SW9 29.77R WCI 31 Boston FAIR 37 33 85 SW8 29.62R WCI 31 Pittsburg CLOUDY 34 26 72 W16G26 29.95R WCI 24 Akron CLOUDY 31 24 75 W10 29.98R WCI 22 Cleveland CLOUDY 31 25 78 NW15 30.04R WCI 20 Cincinnati CLOUDY 32 28 85 NW16 30.15R WCI 21 Columbus FLURRIES 32 28 84 W12 30.09R WCI 23 Detroit CLOUDY 29 20 69 NW16 30.06R WCI 17 Chicago O`Hare CLOUDY 28 21 75 NW8 30.15S WCI 20 Minneapolis CLOUDY 17 12 80 S5 30.20S WCI 10 Indianapolis FRZ DRZL 30 28 92 W14 30.18R WCI 19 Toronto Canada FLURRIES 21 12 68 NW21G26 29.90R WCI 6 $$

USA.gov is the U.S. government's official web portal to all federal, state and local government web resources and services.